Tracking 18673 objects as of 25-June-2017
HD Live streaming from Space Station
objects crossing your sky now

COSMOS 2430

Track COSMOS 2430 now!
COSMOS 2430 is classified as:


NORAD ID: 32268
Int'l Code: 2007-049A
Perigee: 238.0 km
Apogee: 40,147.5 km
Inclination: 63.1 °
Period: 718.1 minutes
Semi major axis: 26563 km
RCS: 3.1623 m2 (large)
Launch date: October 23, 2007
Source: Commonwealth of Independent States (former USSR) (CIS)
Launch site: PLESETSK MISSILE AND SPACE COMPLEX (PKMTR)
Your satellite tracking list
Your tracking list is empty





NASA's NSSDC Master Catalog

Two Line Element Set (TLE):
1 32268U 07049A   17174.41789549 +.00000690 +00000-0 +14129-3 0  9993
2 32268 063.0897 312.9398 7512012 241.5021 025.9742 02.00524932070849
Source of the keplerian elements: AFSPC